FW1143 Groton MA US current weather conditions

sailwx.info

Wind from 046 at 3 knots gusting 8

Air temperature 28.3° C
Dewpoint 23.0° C

Last reported at 2020-Jul-10 19:00 UTC.
Time now 2020-Jul-10 19:59 UTC

Location: N 42°36' W 071°34'.
View on Google Maps.

See reports from other nearby stations

  
Tides and Currents Weather Stations Pressure Air Temp Water Temp Dewpoint Dewpoint Depression Visibility Wind Speed Wind Dir Waves Ship Positions
date/time (UTC)wind fromknots sea level pressurealtimeterstation pressurevisibilityair tempwater tempwave heightnotes
2020-Jul-10 19:00 046 3 gusting 8 28.3
2020-Jul-10 18:47 100 2 gusting 10 28.9
2020-Jul-10 18:30 124 1 gusting 8 28.9
2020-Jul-10 18:15 146 1 gusting 3 29.4
2020-Jul-10 18:00 127 29.4
2020-Jul-10 17:45 142 0 gusting 7 28.9
2020-Jul-10 17:30 160 28.9
2020-Jul-10 17:15 088 1 gusting 6 28.9
2020-Jul-10 17:00 117 0 gusting 4 28.9
2020-Jul-10 16:31 156 0 gusting 6 28.3
2020-Jul-10 16:16 088 0 gusting 4 27.8
2020-Jul-10 16:01 108 0 gusting 2 27.8
2020-Jul-10 15:45 223 0 gusting 5 27.2
2020-Jul-10 15:31 207 0 gusting 5 26.7
2020-Jul-10 15:16 119 1 gusting 5 26.7
2020-Jul-10 15:00 043 0 gusting 3 26.7
2020-Jul-10 14:46 136 0 gusting 4 26.7
2020-Jul-10 14:30 111 26.7
2020-Jul-10 14:15 180 26.1
2020-Jul-10 14:01 280 2 gusting 6 26.1
2020-Jul-10 13:45 204 25.6
2020-Jul-10 13:30 135 0 gusting 2 25.6
2020-Jul-10 13:16 135 1 gusting 3 25.6
2020-Jul-10 13:00 173 25.0
2020-Jul-10 12:45 148 0 gusting 3 24.4
2020-Jul-10 12:30 153 23.9
2020-Jul-10 12:16 153 23.3
2020-Jul-10 12:00 153 23.3
2020-Jul-10 11:46 153 22.8
2020-Jul-10 11:30 144 22.8
2020-Jul-10 11:15 166 0 gusting 3 22.8
2020-Jul-10 11:00 261 0 gusting 2 22.8
2020-Jul-10 10:46 262 22.2
2020-Jul-10 10:30 279 21.7
2020-Jul-10 10:15 279 21.7
2020-Jul-10 10:00 279 21.7
2020-Jul-10 09:45 250 21.1
2020-Jul-10 09:30 289 21.1
2020-Jul-10 09:15 289 21.1
2020-Jul-10 09:00 289 21.7
2020-Jul-10 08:45 289 21.7
2020-Jul-10 08:30 289 22.2
2020-Jul-10 08:15 294 22.2
2020-Jul-10 08:00 296 22.2
2020-Jul-10 07:45 273 21.7
2020-Jul-10 07:30 272 21.7
2020-Jul-10 07:15 272 22.2
2020-Jul-10 07:00 272 22.2
2020-Jul-10 06:45 272 22.8
2020-Jul-10 06:31 272 22.8
2020-Jul-10 06:18 272 23.3
2020-Jul-10 05:47 272 23.3
2020-Jul-10 05:31 272 23.9
2020-Jul-10 05:16 275 23.9
2020-Jul-10 04:46 275 24.4
2020-Jul-10 04:31 276 24.4
2020-Jul-10 04:17 285 25.0
2020-Jul-10 03:46 295 25.6
2020-Jul-10 03:30 295 25.6
2020-Jul-10 03:16 290 26.1
2020-Jul-10 02:46 296 0 gusting 8 26.7
2020-Jul-10 02:31 237 0 gusting 4 26.7
2020-Jul-10 02:16 203 26.7
2020-Jul-10 02:01 260 27.2
2020-Jul-10 01:46 277 27.2
2020-Jul-10 01:16 140 0 gusting 3 27.8
2020-Jul-10 01:00 151 28.3
2020-Jul-10 00:45 223 0 gusting 1 28.3
2020-Jul-10 00:16 138 28.9
2020-Jul-10 00:01 167 29.4
2020-Jul-09 23:46 137 29.4
2020-Jul-09 23:16 137 30.6
2020-Jul-09 23:00 147 30.6
2020-Jul-09 22:46 148 0 gusting 5 31.1
2020-Jul-09 22:16 210 1 gusting 6 31.1
2020-Jul-09 22:00 168 31.1
2020-Jul-09 21:45 152 0 gusting 2 31.7
2020-Jul-09 21:15 152 31.7
2020-Jul-09 21:01 152 31.7
2020-Jul-09 20:45 186 32.2
2020-Jul-09 20:15 244 32.2
2020-Jul-09 20:00 127 0 gusting 4 32.2
2020-Jul-09 19:45 154 32.8
2020-Jul-09 19:15 153 31.7
2020-Jul-09 19:01 245 32.2
2020-Jul-09 18:45 243 31.7
2020-Jul-09 18:15 293 2 gusting 6 32.2
2020-Jul-09 18:00 233 1 gusting 5 31.7
2020-Jul-09 17:45 158 0 gusting 6 31.7
2020-Jul-09 17:15 266 31.1
2020-Jul-09 17:00 023 0 gusting 3 31.1
2020-Jul-09 16:45 285 0 gusting 4 30.6
2020-Jul-09 16:15 121 0 gusting 6 30.0
2020-Jul-09 16:00 282 0 gusting 3 29.4
2020-Jul-09 15:45 131 0 gusting 3 29.4
2020-Jul-09 15:15 191 30.0
2020-Jul-09 15:00 127 29.4
2020-Jul-09 14:45 126 0 gusting 2 28.3
2020-Jul-09 14:16 069 27.8
2020-Jul-09 14:01 012 0 gusting 2 27.2
2020-Jul-09 13:47 012 0 gusting 2 27.8
2020-Jul-09 13:17 283 0 gusting 2 26.7
2020-Jul-09 13:01 283 1 gusting 3 26.7
2020-Jul-09 12:46 300 26.7
2020-Jul-09 12:17 298 0 gusting 3 24.4
2020-Jul-09 12:01 289 23.9
2020-Jul-09 11:47 298 23.9
2020-Jul-09 11:15 272 0 gusting 2 23.3
2020-Jul-09 11:00 279 0 gusting 1 22.8
2020-Jul-09 10:45 269 22.2
2020-Jul-09 10:15 267 21.7
2020-Jul-09 10:00 267 21.7
2020-Jul-09 09:46 260 21.7
2020-Jul-09 09:15 281 21.7
2020-Jul-09 09:00 296 21.7
2020-Jul-09 08:45 290 21.7
2020-Jul-09 08:15 291 21.7
2020-Jul-09 08:00 292 21.7
2020-Jul-09 07:45 292 21.7
2020-Jul-09 07:15 294 21.7
2020-Jul-09 07:00 283 0 gusting 2 21.7
2020-Jul-09 06:45 267 21.7
2020-Jul-09 06:15 303 21.7
2020-Jul-09 06:00 292 21.7
2020-Jul-09 05:45 295 21.7
2020-Jul-09 05:15 296 21.7
2020-Jul-09 05:00 296 21.7
2020-Jul-09 04:45 296 21.7
2020-Jul-09 04:15 296 21.7
2020-Jul-09 04:00 296 21.7
2020-Jul-09 03:45 296 21.7
2020-Jul-09 03:18 296 22.8
2020-Jul-09 03:01 297 22.8
2020-Jul-09 02:46 286 22.8
2020-Jul-09 02:17 253 23.3
2020-Jul-09 02:02 306 23.3
2020-Jul-09 01:46 292 0 gusting 5 23.3
2020-Jul-09 01:16 285 23.9
2020-Jul-09 01:02 257 0 gusting 3 23.9
2020-Jul-09 00:47 274 23.9
2020-Jul-09 00:16 294 1 gusting 6 23.9
2020-Jul-09 00:01 294 0 gusting 5 23.9
2020-Jul-08 23:46 254 0 gusting 3 23.9
2020-Jul-08 23:16 252 1 gusting 4 23.9
2020-Jul-08 23:01 262 0 gusting 3 24.4
2020-Jul-08 22:48 299 0 gusting 5 25.0
2020-Jul-08 22:16 314 3 gusting 7 26.7
2020-Jul-08 22:00 304 5 gusting 11 27.2
2020-Jul-08 21:46 298 2 gusting 8 27.8
2020-Jul-08 21:16 296 6 gusting 9 28.3
2020-Jul-08 21:01 314 2 gusting 9 28.9
2020-Jul-08 20:46 294 2 gusting 11 29.4
2020-Jul-08 20:16 272 5 gusting 11 29.4
2020-Jul-08 20:01 269 2 gusting 12 29.4
2020-Jul-08 19:47 299 4 gusting 13 29.4
2020-Jul-08 19:17 313 5 gusting 13 28.9
2020-Jul-08 19:01 297 1 gusting 9 28.3